#timestamp,LO_Frequency,Hit,StdDev 
1568426415.0,286047001.2,N
1568426415.9,286047001.2,N
1568426435.8,286047000.4,N
1568426455.6,286046999.7,N
1568426475.4,286047001.7,N
1568426495.3,286047002.3,N
1568426515.1,286047001.0,N
1568426535.9,286047001.2,N
1568426555.7,286046998.8,N
1568426575.5,286046999.1,N
1568426595.4,286047001.2,N
1568426615.2,286046998.4,N
1568426635.0,286047000.7,N
1568426636.0,286047000.7,N
1568426655.8,286046998.6,N
1568426675.6,286046997.0,N
1568426695.5,286046999.1,N
1568426715.3,286046998.4,N
1568426735.1,286046998.8,N
1568426755.9,286046996.7,N
1568426775.7,286046995.6,N
1568426795.6,286046996.1,N
1568426815.4,286046995.8,N
1568426835.2,286046995.6,N
1568426855.1,286046995.0,N
1568426856.0,286046995.0,N
1568426875.8,286046996.1,N
1568426895.6,286046996.1,N
1568426915.5,286046993.5,N
1568426935.3,286046995.6,N
1568426955.2,286046996.2,N
1568426975.9,286046995.0,N
1568426995.7,286046999.6,N
1568427015.6,286046999.6,N
1568427035.4,286046999.1,N
1568427055.2,286046996.9,N
1568427075.1,286046997.0,N
1568427076.0,286046997.0,N
1568427095.8,286046995.6,N
1568427115.7,286046999.3,N
1568427135.5,286046997.6,N
1568427155.3,286046995.9,N
1568427175.2,286046995.7,N
1568427195.0,286046995.6,N
1568427195.9,286046995.6,N
1568427215.8,286046996.2,N
1568427235.6,286046996.2,N
1568427255.4,286046995.6,N
1568427275.3,286046996.1,N
1568427295.1,286046995.9,N
1568427315.8,286046995.9,N
1568427335.7,286046996.6,N
1568427355.5,286046995.4,Y
1568427375.4,286047000.7,P
1568427395.2,286046999.9,N
1568427415.0,286046999.9,N
1568427415.9,286046999.9,N
1568427435.8,286046999.9,N
1568427455.6,286046998.3,N
1568427475.4,286047000.7,N
1568427495.3,286047001.1,N
1568427515.1,286046999.5,N
1568427535.9,286046995.7,Y
1568427555.7,286046995.2,P
1568427575.5,286046996.1,N
1568427595.4,286046997.7,N
1568427615.2,286046999.6,N
1568427635.0,286046998.7,N
1568427635.9,286046998.7,N
1568427655.8,286046997.5,N
1568427675.6,286046997.9,N
1568427695.5,286046996.7,N
1568427715.3,286046998.1,N
1568427735.1,286047001.2,N
1568427755.9,286047000.6,N
1568427775.7,286047004.0,N
1568427795.5,286047004.0,N
1568427815.4,286047001.5,N
1568427835.2,286047001.8,N
1568427855.1,286047001.7,N
1568427856.0,286047001.7,N
1568427875.8,286046999.8,N
1568427895.6,286047002.2,N
1568427915.5,286047002.3,N
1568427935.3,286047005.8,N
1568427955.1,286047004.6,N
1568427975.9,286047001.4,N
1568427995.7,286047003.8,N
1568428015.6,286047001.8,N
1568428035.4,286047002.2,N
1568428055.2,286047002.1,N
1568428075.1,286047006.0,N
1568428076.0,286047006.0,N
1568428095.8,286047003.3,N
1568428115.6,286047003.9,N
1568428135.5,286047002.7,N
1568428155.3,286047002.2,N
1568428175.2,286047007.6,Y
1568428195.9,286047005.7,P
1568428215.7,286047004.2,N
1568428235.6,286047002.3,N
1568428255.4,286046999.8,N
1568428275.2,286047002.4,N
1568428295.1,286047001.6,N
1568428296.0,286047001.6,N
1568428315.8,286047003.6,N
1568428335.7,286047002.1,N
1568428355.5,286047002.3,N
1568428375.3,286047002.2,N
1568428395.2,286047004.3,Y
1568428415.0,286046998.8,P
1568428415.9,286046998.8,N
1568428435.7,286046999.0,N
1568428455.6,286046998.9,N
1568428475.4,286046999.4,N
1568428495.3,286046997.8,N
1568428515.1,286046997.7,N
1568428516.0,286046997.7,N
1568428535.8,286046996.8,N
1568428555.7,286046996.7,N
1568428575.5,286046995.2,Y
1568428595.3,286046997.2,P
1568428615.2,286046998.4,N
1568428635.0,286046996.7,P
1568428635.9,286046996.7,Y
1568428655.8,286047000.9,P
1568428675.6,286047002.7,N
1568428695.4,286047002.0,N
1568428715.3,286047001.9,N
1568428735.1,286047001.7,N
1568428755.9,286047004.3,N
1568428775.7,286047002.0,N
1568428795.5,286047003.7,N
1568428815.4,286047004.0,N
1568428835.2,286047005.0,N
1568428855.0,286047007.0,Y
1568428855.9,286047007.0,P
1568428875.8,286047007.4,P
1568428895.6,286047008.0,P
1568428915.5,286047010.6,Y
1568428935.3,286047001.3,P
1568428955.1,286047002.6,N
1568428975.9,286047000.6,N
1568428995.7,286046998.2,N
1568429015.6,286046998.7,N
1568429035.4,286046999.4,N
1568429055.2,286047000.0,N
1568429075.1,286047002.7,N
1568429076.0,286047002.7,N
1568429095.8,286047002.7,N
1568429115.6,286047000.2,N
1568429135.5,286046998.1,N
1568429155.3,286046999.9,N
1568429175.2,286047002.7,N
1568429195.9,286047001.3,N
1568429215.7,286047004.5,N
1568429235.6,286047007.2,Y
1568429255.4,286047003.2,P
1568429275.2,286047001.3,N
1568429295.1,286047008.4,P
1568429296.0,286047008.4,N
1568429315.8,286047008.4,N
1568429335.7,286047006.8,N
1568429355.5,286047004.7,N
1568429375.3,286047009.0,Y
1568429395.2,286047001.2,P
1568429415.0,286047000.8,N
1568429415.9,286047000.8,N
1568429435.8,286046998.9,N
1568429455.6,286047002.7,N
1568429475.4,286047002.3,N
1568429495.3,286047000.2,N
1568429515.1,286046999.9,N
1568429535.8,286047002.6,N
1568429555.7,286047003.6,N
1568429575.5,286047003.7,N
1568429595.4,286047005.8,Y
1568429615.2,286047003.3,P
1568429635.0,286047004.7,P
1568429635.9,286047004.7,P
1568429655.8,286047007.3,Y
1568429675.6,286047001.3,P
1568429695.5,286047001.6,N
1568429715.3,286047003.7,P
1568429735.1,286047004.4,Y
1568429755.9,286047000.5,P
1568429775.7,286047000.0,N
1568429795.5,286046999.9,N
1568429815.4,286047002.5,N
1568429835.2,286047000.9,N
1568429855.1,286047000.4,N
1568429856.0,286047000.4,N
1568429875.8,286047002.7,N
1568429895.6,286047000.0,N
1568429915.5,286046996.7,Y
1568429935.3,286046997.3,P
1568429955.1,286046996.9,N
1568429975.9,286046998.6,N
1568429995.7,286046998.6,N
